| time (UTC) | temp C | wind direction | speed KPH | gust KPH | rain 1hr cm | rain 24hr cm | rain mn cm | humidity % | barometer mb |
| 20260504214842 | 11 | 5 | 0.0 | 1.6 | 0.00 | 0.00 | 0.00 | 45 | 1012.6 |
| 20260504214528 | 11 | 80 | 0.0 | 3.2 | 0.00 | 0.00 | 0.00 | 49 | 1012.8 |
| 20260504214420 | 11 | 350 | 0.0 | 0.0 | 0.00 | 0.00 | 0.00 | 46 | 1012.6 |
| 20260504213935 | 11 | 80 | 0.0 | 0.0 | 0.00 | 0.00 | 0.00 | 47 | 1012.8 |
| 20260504212842 | 10 | 98 | 0.0 | 8.0 | 0.00 | 0.00 | 0.00 | 50 | 1012.8 |
| 20260504212342 | 10 | 121 | 1.6 | 14.5 | 0.00 | 0.00 | 0.00 | 52 | 1012.8 |
| 20260504211842 | 10 | 134 | 1.6 | 14.5 | 0.00 | 0.00 | 0.00 | 54 | 1013.1 |
| 20260504211344 | 10 | 143 | 1.6 | 16.1 | 0.00 | 0.00 | 0.00 | 53 | 1013.1 |
| 20260504210844 | 10 | 124 | 1.6 | 16.1 | 0.00 | 0.00 | 0.00 | 52 | 1013.2 |
| 20260504210342 | 10 | 216 | 1.6 | 16.1 | 0.00 | 0.00 | 0.00 | 51 | 1013.3 |
| 20260504205842 | 10 | 154 | 1.6 | 17.7 | 0.00 | 0.00 | 0.00 | 51 | 1013.2 |
| 20260504205342 | 11 | 164 | 1.6 | 25.7 | 0.00 | 0.00 | 0.00 | 50 | 1013.2 |
| 20260504205054 | 11 | 172 | 3.2 | 25.7 | 0.00 | 0.00 | 0.00 | 49 | 1013.1 |
| 20260504204330 | 11 | 173 | 6.4 | 25.7 | 0.00 | 0.00 | 0.00 | 47 | 1013.1 |
| 20260504203821 | 11 | 175 | 6.4 | 25.7 | 0.00 | 0.00 | 0.00 | 45 | 1013.1 |
| 20260504203315 | 11 | 206 | 4.8 | 25.7 | 0.00 | 0.00 | 0.00 | 42 | 1013.0 |
| 20260504203033 | 12 | 192 | 3.2 | 25.7 | 0.00 | 0.00 | 0.00 | 41 | 1013.0 |
| 20260504202307 | 12 | 196 | 3.2 | 25.7 | 0.00 | 0.00 | 0.00 | 40 | 1012.8 |
| 20260504201806 | 12 | 194 | 1.6 | 22.5 | 0.00 | 0.00 | 0.00 | 39 | 1012.8 |
| 20260504201307 | 13 | 192 | 3.2 | 22.5 | 0.00 | 0.00 | 0.00 | 37 | 1012.8 |
| 20260504200806 | 13 | 185 | 3.2 | 22.5 | 0.00 | 0.00 | 0.00 | 35 | 1012.7 |
| 20260504200524 | 13 | 145 | 0.0 | 8.0 | 0.00 | 0.00 | 0.00 | 35 | 1012.7 |
| 20260504195801 | 13 | 246 | 0.0 | 0.0 | 0.00 | 0.00 | 0.00 | 33 | 1012.7 |
| 20260504195304 | 13 | 277 | 0.0 | 0.0 | 0.00 | 0.00 | 0.00 | 35 | 1012.6 |
| 20260504194803 | 12 | 292 | 0.0 | 1.6 | 0.00 | 0.00 | 0.00 | 35 | 1012.6 |
| 20260504194521 | 12 | 306 | 1.6 | 17.7 | 0.00 | 0.00 | 0.00 | 36 | 1012.7 |
| 20260504193759 | 12 | 300 | 4.8 | 25.7 | 0.00 | 0.00 | 0.00 | 37 | 1012.6 |
| 20260504193745 | 12 | 308 | 4.8 | 25.7 | 0.00 | 0.00 | 0.00 | 37 | 1012.6 |
| 20260504192758 | 12 | 355 | 4.8 | 35.4 | 0.00 | 0.00 | 0.00 | 36 | 1012.6 |
| 20260504192259 | 12 | 309 | 6.4 | 35.4 | 0.00 | 0.00 | 0.00 | 36 | 1012.6 |
| 20260504191758 | 12 | 302 | 6.4 | 30.6 | 0.00 | 0.00 | 0.00 | 35 | 1012.6 |
| 20260504191521 | 13 | 342 | 3.2 | 27.4 | 0.00 | 0.00 | 0.00 | 33 | 1012.6 |
| 20260504190759 | 13 | 302 | 3.2 | 24.1 | 0.00 | 0.00 | 0.00 | 34 | 1012.6 |
| 20260504190259 | 13 | 282 | 1.6 | 17.7 | 0.00 | 0.00 | 0.00 | 34 | 1012.6 |
| 20260504185759 | 13 | 293 | 3.2 | 22.5 | 0.00 | 0.00 | 0.00 | 34 | 1012.6 |
| 20260504185259 | 13 | 292 | 3.2 | 25.7 | 0.00 | 0.00 | 0.00 | 34 | 1012.6 |
| 20260504185020 | 13 | 272 | 1.6 | 25.7 | 0.00 | 0.00 | 0.00 | 33 | 1012.5 |
| 20260504184258 | 13 | 302 | 6.4 | 22.5 | 0.00 | 0.00 | 0.00 | 33 | 1012.5 |
| 20260504183758 | 13 | 283 | 6.4 | 25.7 | 0.00 | 0.00 | 0.00 | 33 | 1012.5 |
| 20260504183257 | 13 | 254 | 6.4 | 25.7 | 0.00 | 0.00 | 0.00 | 32 | 1012.4 |
| 20260504182758 | 14 | 274 | 4.8 | 20.9 | 0.00 | 0.00 | 0.00 | 32 | 1012.5 |
| 20260504182258 | 15 | 217 | 3.2 | 19.3 | 0.00 | 0.00 | 0.00 | 33 | 1012.4 |
| 20260504182240 | 15 | 189 | 3.2 | 20.9 | 0.00 | 0.00 | 0.00 | 33 | 1012.4 |
| 20260504181258 | 15 | 159 | 1.6 | 20.9 | 0.00 | 0.00 | 0.00 | 32 | 1012.2 |
| 20260504180757 | 16 | 205 | 1.6 | 17.7 | 0.00 | 0.00 | 0.00 | 28 | 1012.4 |
| 20260504180259 | 16 | 215 | 3.2 | 17.7 | 0.00 | 0.00 | 0.00 | 27 | 1012.2 |
| 20260504175759 | 16 | 173 | 1.6 | 14.5 | 0.00 | 0.00 | 0.00 | 27 | 1012.2 |
| 20260504175257 | 16 | 288 | 1.6 | 14.5 | 0.00 | 0.00 | 0.00 | 27 | 1012.2 |
| 20260504174757 | 16 | 198 | 3.2 | 16.1 | 0.00 | 0.00 | 0.00 | 28 | 1012.4 |
| 20260504174259 | 16 | 137 | 3.2 | 17.7 | 0.00 | 0.00 | 0.00 | 28 | 1012.4 |
| 20260504173758 | 16 | 204 | 1.6 | 17.7 | 0.00 | 0.00 | 0.00 | 27 | 1012.4 |
| 20260504173521 | 16 | 192 | 1.6 | 16.1 | 0.00 | 0.00 | 0.00 | 29 | 1012.5 |
| 20260504172759 | 15 | 178 | 1.6 | 16.1 | 0.00 | 0.00 | 0.00 | 29 | 1012.5 |
| 20260504172258 | 15 | 190 | 1.6 | 11.3 | 0.00 | 0.00 | 0.00 | 30 | 1012.6 |
| 20260504172005 | 15 | 238 | 0.0 | 11.3 | 0.00 | 0.00 | 0.00 | 31 | 1012.7 |
| 20260504171238 | 15 | 232 | 1.6 | 16.1 | 0.00 | 0.00 | 0.00 | 31 | 1012.8 |
| 20260504170739 | 15 | 251 | 3.2 | 16.1 | 0.00 | 0.00 | 0.00 | 31 | 1012.8 |
| 20260504170239 | 15 | 222 | 1.6 | 14.5 | 0.00 | 0.00 | 0.00 | 32 | 1013.0 |
| 20260504160446 | 13 | 181 | 1.6 | 17.7 | 0.00 | 0.00 | 0.00 | 40 | 1013.2 |
| 20260504151143 | 12 | 215 | 3.2 | 20.9 | 0.00 | 0.00 | 0.00 | 43 | 1013.7 |
| 20260504150645 | 12 | 213 | 3.2 | 17.7 | 0.00 | 0.00 | 0.00 | 43 | 1013.8 |
| 20260504150144 | 12 | 205 | 1.6 | 17.7 | 0.00 | 0.00 | 0.00 | 43 | 1013.8 |
| 20260504141127 | 9 | 204 | 1.6 | 24.1 | 0.00 | 0.00 | 0.00 | 52 | 1014.0 |
| 20260504141119 | 8 | 206 | 3.2 | 24.1 | 0.00 | 0.00 | 0.00 | 53 | 1013.8 |
| 20260504140127 | 8 | 218 | 4.8 | 22.5 | 0.00 | 0.00 | 0.00 | 53 | 1013.8 |
| 20260504130612 | 7 | 231 | 1.6 | 17.7 | 0.00 | 0.00 | 0.00 | 57 | 1014.1 |
| 20260504130556 | 7 | 232 | 1.6 | 17.7 | 0.00 | 0.00 | 0.00 | 56 | 1014.1 |
| 20260504120154 | 8 | 278 | 8.0 | 20.9 | 0.00 | 0.00 | 0.00 | 52 | 1013.6 |
| 20260504110543 | 8 | 254 | 1.6 | 14.5 | 0.00 | 0.00 | 0.00 | 44 | 1013.6 |
| 20260504081512 | 8 | 218 | 0.0 | 0.0 | 0.00 | 0.00 | 0.00 | 36 | 1013.5 |
| 20260504081012 | 8 | 218 | 0.0 | 0.0 | 0.00 | 0.00 | 0.00 | 35 | 1013.6 |
| 20260504080508 | 8 | 218 | 0.0 | 0.0 | 0.00 | 0.00 | 0.00 | 34 | 1013.6 |
| 20260504050411 | 10 | 227 | 0.0 | 0.0 | 0.00 | 0.00 | 0.00 | 31 | 1014.5 |
| 20260504045911 | 10 | 222 | 0.0 | 0.0 | 0.00 | 0.00 | 0.00 | 31 | 1014.6 |
| 20260504045411 | 10 | 216 | 0.0 | 0.0 | 0.00 | 0.00 | 0.00 | 31 | 1014.6 |
| 20260504044911 | 10 | 215 | 0.0 | 0.0 | 0.00 | 0.00 | 0.00 | 30 | 1014.6 |
| 20260504044412 | 10 | 217 | 0.0 | 0.0 | 0.00 | 0.00 | 0.00 | 30 | 1014.6 |
| 20260504044128 | 11 | 207 | 0.0 | 0.0 | 0.00 | 0.00 | 0.00 | 30 | 1014.6 |
| 20260504043356 | 11 | 207 | 0.0 | 0.0 | 0.00 | 0.00 | 0.00 | 30 | 1014.6 |
| 20260504042344 | 11 | 206 | 0.0 | 0.0 | 0.00 | 0.00 | 0.00 | 29 | 1014.7 |
| 20260504041831 | 11 | 205 | 0.0 | 0.0 | 0.00 | 0.00 | 0.00 | 29 | 1014.7 |
| 20260504041324 | 11 | 209 | 0.0 | 0.0 | 0.00 | 0.00 | 0.00 | 29 | 1014.7 |
| 20260504040818 | 11 | 202 | 0.0 | 1.6 | 0.00 | 0.00 | 0.00 | 29 | 1014.7 |
| 20260504040308 | 11 | 202 | 0.0 | 1.6 | 0.00 | 0.00 | 0.00 | 29 | 1014.8 |
| 20260504035802 | 11 | 208 | 0.0 | 0.0 | 0.00 | 0.00 | 0.00 | 29 | 1014.8 |
| 20260504035257 | 11 | 207 | 0.0 | 0.0 | 0.00 | 0.00 | 0.00 | 28 | 1014.8 |
| 20260504035008 | 11 | 201 | 0.0 | 0.0 | 0.00 | 0.00 | 0.00 | 28 | 1014.7 |
| 20260504034236 | 11 | 201 | 0.0 | 0.0 | 0.00 | 0.00 | 0.00 | 27 | 1014.7 |
| 20260504033730 | 11 | 201 | 0.0 | 0.0 | 0.00 | 0.00 | 0.00 | 27 | 1014.7 |
| 20260504033220 | 11 | 201 | 0.0 | 0.0 | 0.00 | 0.00 | 0.00 | 26 | 1014.7 |
| 20260504032714 | 11 | 211 | 0.0 | 0.0 | 0.00 | 0.00 | 0.00 | 26 | 1014.6 |
| 20260504032209 | 11 | 211 | 0.0 | 0.0 | 0.00 | 0.00 | 0.00 | 25 | 1014.6 |
| 20260504031653 | 12 | 211 | 0.0 | 0.0 | 0.00 | 0.00 | 0.00 | 25 | 1014.6 |
| 20260504031148 | 12 | 212 | 0.0 | 6.4 | 0.00 | 0.00 | 0.00 | 25 | 1014.6 |
| 20260504030908 | 12 | 210 | 0.0 | 6.4 | 0.00 | 0.00 | 0.00 | 24 | 1014.6 |
| 20260504030133 | 12 | 211 | 0.0 | 1.6 | 0.00 | 0.00 | 0.00 | 24 | 1014.6 |
| 20260504025851 | 12 | 211 | 0.0 | 0.0 | 0.00 | 0.00 | 0.00 | 24 | 1014.6 |
| 20260504025119 | 12 | 212 | 0.0 | 1.6 | 0.00 | 0.00 | 0.00 | 24 | 1014.6 |
| 20260504024828 | 12 | 212 | 0.0 | 1.6 | 0.00 | 0.00 | 0.00 | 24 | 1014.5 |
| 20260504024320 | 12 | 215 | 0.0 | 4.8 | 0.00 | 0.00 | 0.00 | 24 | 1014.5 |
| 20260504023554 | 12 | 215 | 0.0 | 4.8 | 0.00 | 0.00 | 0.00 | 23 | 1014.5 |
| 20260504023044 | 13 | 211 | 0.0 | 0.0 | 0.00 | 0.00 | 0.00 | 23 | 1014.5 |
| 20260504022538 | 13 | 211 | 0.0 | 0.0 | 0.00 | 0.00 | 0.00 | 23 | 1014.5 |
| 20260504022038 | 13 | 211 | 0.0 | 0.0 | 0.00 | 0.00 | 0.00 | 23 | 1014.5 |
| 20260504021539 | 13 | 211 | 0.0 | 0.0 | 0.00 | 0.00 | 0.00 | 22 | 1014.3 |
| 20260504021036 | 14 | 211 | 0.0 | 3.2 | 0.00 | 0.00 | 0.00 | 22 | 1014.3 |
| 20260504020536 | 14 | 211 | 0.0 | 4.8 | 0.00 | 0.00 | 0.00 | 22 | 1014.5 |
| 20260504020032 | 15 | 184 | 0.0 | 4.8 | 0.00 | 0.00 | 0.00 | 21 | 1014.5 |
| 20260504015532 | 15 | 181 | 0.0 | 0.0 | 0.00 | 0.00 | 0.00 | 21 | 1014.5 |
| 20260504015514 | 15 | 181 | 0.0 | 0.0 | 0.00 | 0.00 | 0.00 | 21 | 1014.5 |
| 20260504014526 | 15 | 181 | 0.0 | 0.0 | 0.00 | 0.00 | 0.00 | 21 | 1014.5 |
| 20260504014024 | 15 | 181 | 0.0 | 4.8 | 0.00 | 0.00 | 0.00 | 20 | 1014.5 |
| 20260504013525 | 15 | 166 | 0.0 | 4.8 | 0.00 | 0.00 | 0.00 | 20 | 1014.5 |
| 20260504013026 | 15 | 205 | 1.6 | 12.9 | 0.00 | 0.00 | 0.00 | 20 | 1014.5 |
| 20260504012523 | 15 | 189 | 1.6 | 12.9 | 0.00 | 0.00 | 0.00 | 20 | 1014.6 |
| 20260504012024 | 15 | 157 | 0.0 | 11.3 | 0.00 | 0.00 | 0.00 | 19 | 1014.5 |
| 20260504011523 | 16 | 182 | 1.6 | 11.3 | 0.00 | 0.00 | 0.00 | 19 | 1014.5 |
| 20260504011018 | 16 | 162 | 1.6 | 16.1 | 0.00 | 0.00 | 0.00 | 19 | 1014.6 |
| 20260504010511 | 16 | 157 | 0.0 | 16.1 | 0.00 | 0.00 | 0.00 | 19 | 1014.6 |
| 20260504010011 | 16 | 198 | 0.0 | 3.2 | 0.00 | 0.00 | 0.00 | 18 | 1014.6 |
| 20260504005511 | 16 | 217 | 0.0 | 1.6 | 0.00 | 0.00 | 0.00 | 16 | 1014.7 |
| 20260504005010 | 16 | 226 | 0.0 | 0.0 | 0.00 | 0.00 | 0.00 | 16 | 1014.6 |
| 20260504004509 | 17 | 211 | 0.0 | 4.8 | 0.00 | 0.00 | 0.00 | 15 | 1014.6 |
| 20260504004010 | 17 | 223 | 0.0 | 4.8 | 0.00 | 0.00 | 0.00 | 15 | 1014.7 |
| 20260504003510 | 17 | 171 | 0.0 | 4.8 | 0.00 | 0.00 | 0.00 | 16 | 1014.7 |
| 20260504003008 | 17 | 127 | 0.0 | 4.8 | 0.00 | 0.00 | 0.00 | 16 | 1014.7 |
| 20260504002505 | 17 | 159 | 0.0 | 6.4 | 0.00 | 0.00 | 0.00 | 16 | 1014.7 |
| 20260504002229 | 17 | 206 | 0.0 | 6.4 | 0.00 | 0.00 | 0.00 | 16 | 1014.7 |
| 20260504001506 | 17 | 120 | 1.6 | 8.0 | 0.00 | 0.00 | 0.00 | 15 | 1014.8 |
| 20260504001000 | 17 | 213 | 1.6 | 12.9 | 0.00 | 0.00 | 0.00 | 15 | 1014.8 |
| 20260504000502 | 17 | 210 | 1.6 | 12.9 | 0.00 | 0.00 | 0.00 | 15 | 1014.8 |
| 20260504000001 | 18 | 201 | 0.0 | 8.0 | 0.00 | 0.00 | 0.00 | 14 | 1014.7 |
| 20260503235500 | 18 | 247 | 0.0 | 9.7 | 0.00 | 0.00 | 0.00 | 14 | 1014.8 |
| 20260503235002 | 18 | 169 | 0.0 | 9.7 | 0.00 | 0.00 | 0.00 | 14 | 1014.8 |
| 20260503234500 | 17 | 236 | 1.6 | 8.0 | 0.00 | 0.00 | 0.00 | 14 | 1014.9 |
| 20260503234000 | 17 | 225 | 1.6 | 8.0 | 0.00 | 0.00 | 0.00 | 15 | 1014.9 |
| 20260503233502 | 17 | 213 | 0.0 | 14.5 | 0.00 | 0.00 | 0.00 | 15 | 1014.9 |
| 20260503232958 | 17 | 250 | 0.0 | 16.1 | 0.00 | 0.00 | 0.00 | 15 | 1014.9 |
| 20260503232458 | 18 | 228 | 1.6 | 16.1 | 0.00 | 0.00 | 0.00 | 15 | 1014.9 |
| 20260503231956 | 18 | 250 | 1.6 | 19.3 | 0.00 | 0.00 | 0.00 | 14 | 1014.9 |
| 20260503231718 | 18 | 220 | 1.6 | 19.3 | 0.00 | 0.00 | 0.00 | 14 | 1015.1 |
| 20260503230954 | 18 | 223 | 3.2 | 24.1 | 0.00 | 0.00 | 0.00 | 14 | 1014.9 |
| 20260503230455 | 18 | 230 | 4.8 | 24.1 | 0.00 | 0.00 | 0.00 | 14 | 1015.1 |
| 20260503225954 | 18 | 218 | 8.0 | 33.8 | 0.00 | 0.00 | 0.00 | 13 | 1015.1 |
| 20260503225455 | 18 | 238 | 6.4 | 33.8 | 0.00 | 0.00 | 0.00 | 14 | 1015.1 |
| 20260503225444 | 18 | 290 | 1.6 | 16.1 | 0.00 | 0.00 | 0.00 | 14 | 1015.1 |
| 20260503224443 | 17 | 295 | 1.6 | 17.7 | 0.00 | 0.00 | 0.00 | 14 | 1015.1 |
| 20260503223929 | 17 | 311 | 1.6 | 19.3 | 0.00 | 0.00 | 0.00 | 13 | 1015.1 |
| 20260503223423 | 17 | 225 | 3.2 | 19.3 | 0.00 | 0.00 | 0.00 | 13 | 1015.2 |
| 20260503222918 | 17 | 309 | 4.8 | 19.3 | 0.00 | 0.00 | 0.00 | 14 | 1015.2 |
| 20260503222408 | 17 | 208 | 3.2 | 27.4 | 0.00 | 0.00 | 0.00 | 13 | 1015.4 |
| 20260503222119 | 17 | 257 | 3.2 | 22.5 | 0.00 | 0.00 | 0.00 | 12 | 1015.4 |
| 20260503221356 | 17 | 227 | 4.8 | 22.5 | 0.00 | 0.00 | 0.00 | 12 | 1015.6 |
| 20260503220840 | 18 | 225 | 3.2 | 24.1 | 0.00 | 0.00 | 0.00 | 12 | 1015.7 |
| 20260503220555 | 17 | 207 | 3.2 | 24.1 | 0.00 | 0.00 | 0.00 | 12 | 1015.7 |
| 20260503215830 | 18 | 277 | 1.6 | 14.5 | 0.00 | 0.00 | 0.00 | 13 | 1015.8 |
| 20260503215319 | 17 | 267 | 3.2 | 22.5 | 0.00 | 0.00 | 0.00 | 14 | 1015.9 |